[[{"header":{"parameterUnit":"m.s-1","parameterCategory":1,"la1":30.2992,"la2":30.254,"lo1":-89.0895,"lo2":-89.0443,"dy":0.0025,"dx":0.0025,"nx":19,"ny":19,"refTime":"2026-03-14T21:00:00:Z","depth":0,"parameterNumber":2,"parameterNumberName":"U-component_of_WINDS"},"data":[0,0,0,-1.3902,-1.3903,-1.3958,-1.3958,-1.4023,-1.4023,0,0,0,0,0,0,0,0,0,0,0,-1.3883,-1.3883,-1.3902,-1.3903,-1.3958,-1.3958,-1.4023,-1.4023,0,0,0,0,0,0,0,0,0,0,0,-1.3883,-1.3883,-1.3884,-1.3903,-1.3957,-1.3958,-1.4023,-1.3983,0,0,0,0,0,0,0,0,0,0,-1.3931,-1.3911,-1.3883,-1.3884,-1.3904,-1.3957,-1.3958,-1.3981,-1.3985,-1.3996,0,-1.4005,0,-1.4015,-1.4027,-1.4028,0,0,0,-1.3905,-1.3907,-1.3925,-1.3884,-1.3904,-1.3957,-1.3933,-1.3984,-1.3988,-1.4002,-1.4006,-1.4009,-1.4016,-1.4028,-1.4028,-1.4085,-1.4085,0,0,-1.3902,-1.3891,-1.3921,-1.3928,-1.3919,-1.3932,-1.3935,-1.3987,-1.399,-1.4006,-1.401,-1.4018,-1.4028,-1.4029,-1.4085,-1.4085,0,0,0,-1.3892,-1.3889,-1.3905,-1.3925,-1.3935,-1.3933,-1.3937,-1.3988,-1.3994,-1.4011,-1.4018,-1.4029,-1.4029,-1.4085,-1.4085,-1.4083,0,0,0,-1.389,-1.3883,-1.3904,-1.3898,-1.3934,-1.3962,-1.3938,-1.3991,-1.3997,-1.4018,-1.4029,-1.403,-1.4084,-1.4085,-1.4083,-1.4084,0,0,0,-1.388,-1.3882,-1.3889,-1.3897,-1.392,-1.3962,-1.3971,-1.3992,-1.4001,-1.4028,-1.403,-1.4084,-1.4085,-1.4082,-1.4083,-1.4095,0,0,0,-1.3867,-1.3887,-1.3889,-1.3915,-1.392,-1.3961,-1.3971,-1.4002,-1.4024,-1.4029,-1.4084,-1.4085,-1.4082,-1.4083,-1.4095,-1.4102,-1.4105,0,0,-1.3886,-1.3889,-1.3905,-1.3908,-1.3946,-1.3953,-1.3991,-1.4021,-1.4034,-1.4067,-1.4069,-1.4083,-1.4083,-1.4095,-1.4125,-1.4127,0,0,0,-1.3907,-1.3919,-1.3931,-1.3952,-1.3977,-1.3997,-1.4023,-1.4035,-1.4064,-1.4049,-1.4091,-1.4092,-1.4099,-1.4103,-1.4105,-1.4112,-1.4087,-1.4087,-1.4086,-1.3919,-1.3934,-1.3961,-1.3983,-1.4004,-1.4031,-1.4049,-1.4069,-1.4077,-1.4087,-1.4097,-1.4113,-1.4118,-1.4119,-1.4126,-1.4103,-1.4103,-1.4103,-1.4103,-1.3948,-1.3966,-1.3978,-1.4009,-1.4025,-1.4051,-1.4078,-1.4083,-1.411,-1.4107,-1.4114,-1.4109,-1.4121,-1.4127,-1.4103,-1.4103,-1.4103,-1.4103,-1.4103,-1.3956,-1.3967,-1.3981,-1.4014,-1.4038,-1.406,-1.4084,-1.4098,-1.4111,-1.4119,-1.413,-1.413,-1.4131,-1.4123,-1.4123,-1.4124,-1.4124,-1.4124,-1.4124,-1.3958,-1.3974,-1.3994,-1.4022,-1.4038,-1.406,-1.4089,-1.4105,-1.4126,-1.4134,-1.4134,-1.4141,-1.412,-1.4113,-1.4125,-1.4124,-1.4124,-1.4124,-1.4124,-1.3979,-1.3977,-1.4007,-1.4023,-1.4057,-1.408,-1.4098,-1.4129,-1.4145,-1.4156,-1.4163,-1.4145,-1.4148,-1.4147,-1.4142,-1.416,-1.416,-1.416,-1.416,-1.3985,-1.3989,-1.4023,-1.4047,-1.4073,-1.4093,-1.4126,-1.4148,-1.4171,-1.4182,-1.4182,-1.4176,-1.4174,-1.4179,-1.4177,-1.4172,-1.4198,-1.4198,-1.4198,-1.3999,-1.4006,-1.4031,-1.4054,-1.4083,-1.4107,-1.4138,-1.4166,-1.4192,-1.42,-1.419,-1.4188,-1.418,-1.4177,-1.4182,-1.4179,-1.417,0,0]},{"header":{"parameterUnit":"m.s-1","parameterCategory":1,"la1":30.2992,"la2":30.254,"lo1":-89.0895,"lo2":-89.0443,"dy":0.0025,"dx":0.0025,"nx":19,"ny":19,"refTime":"2026-03-14T21:00:00:Z","depth":0,"parameterNumber":3,"parameterNumberName":"V-component_of_WINDS"},"data":[0,0,0,5.8953,5.896,5.9307,5.9308,5.9714,5.9717,0,0,0,0,0,0,0,0,0,0,0,5.883,5.8832,5.8952,5.8961,5.9307,5.9308,5.9713,5.9717,0,0,0,0,0,0,0,0,0,0,0,5.8829,5.8831,5.8834,5.8962,5.9306,5.9309,5.9713,5.9464,0,0,0,0,0,0,0,0,0,0,5.9134,5.9,5.8831,5.8834,5.8964,5.9306,5.9309,5.9453,5.948,5.9542,0,5.9593,0,5.9662,5.9742,5.9744,0,0,0,5.8975,5.8977,5.909,5.8834,5.8967,5.9305,5.9155,5.9468,5.9498,5.9577,5.9599,5.9615,5.9668,5.9745,5.9747,6.0062,6.0062,0,0,5.8956,5.888,5.9069,5.9109,5.9055,5.9144,5.9165,5.9487,5.9505,5.9601,5.9626,5.9675,5.9747,5.975,6.0061,6.0062,0,0,0,5.8891,5.8866,5.8972,5.9091,5.9156,5.9153,5.9178,5.9491,5.9532,5.963,5.968,5.9749,5.9754,6.006,6.0061,6.0028,0,0,0,5.8881,5.8829,5.8963,5.8919,5.915,5.9329,5.9174,5.951,5.9549,5.9678,5.975,5.9758,6.0059,6.0061,6.0027,6.0024,0,0,0,5.8814,5.8821,5.8864,5.8914,5.9061,5.9325,5.9385,5.952,5.9578,5.9744,5.9759,6.0059,6.0061,6.0026,6.0024,6.0087,0,0,0,5.872,5.8827,5.8862,5.9001,5.9058,5.9302,5.9384,5.9569,5.9707,5.9751,6.006,6.0061,6.0026,6.0023,6.0085,6.0127,6.0137,0,0,5.8812,5.8835,5.8923,5.8965,5.9184,5.9255,5.947,5.9666,5.975,5.9952,5.9961,6.0027,6.0023,6.0086,6.0217,6.0224,0,0,0,5.8926,5.8988,5.9063,5.9193,5.9347,5.948,5.9653,5.9726,5.9902,5.9839,6.0069,6.0069,6.0109,6.0132,6.0139,6.0178,6.0068,6.0068,6.0068,5.8947,5.9051,5.9203,5.935,5.9474,5.9652,5.9763,5.9892,5.9958,6.001,6.0071,6.0138,6.0162,6.0168,6.0208,6.01,6.01,6.01,6.01,5.9092,5.9197,5.9286,5.9466,5.9574,5.9726,5.9901,5.9944,6.01,6.01,6.014,6.0132,6.0173,6.0213,6.0099,6.0099,6.0099,6.0099,6.0099,5.9118,5.9187,5.9276,5.9475,5.9617,5.976,5.9908,6.0001,6.0089,6.0129,6.0204,6.0205,6.0218,6.0158,6.0158,6.0158,6.0159,6.0159,6.0159,5.9109,5.9212,5.9326,5.95,5.9597,5.9735,5.9916,6.0013,6.0144,6.02,6.0202,6.0263,6.0157,6.0129,6.0163,6.0162,6.0162,6.0162,6.0161,5.922,5.9211,5.9386,5.9483,5.9697,5.9832,5.995,6.0139,6.0233,6.0302,6.0356,6.0262,6.0291,6.0287,6.0265,6.0333,6.0333,6.0333,6.0333,5.9242,5.9267,5.9469,5.9618,5.9775,5.99,6.0094,6.0236,6.038,6.0444,6.0448,6.0426,6.0417,6.0452,6.0444,6.0425,6.0532,6.0532,6.0532,5.9317,5.9361,5.951,5.9654,5.9829,5.9976,6.0162,6.0329,6.049,6.0542,6.0497,6.0489,6.0454,6.0437,6.0488,6.0473,6.044,0,0]}]]